UAL Europe — MKVS6 — position and weather

sailwx.info

Track history (hours):
 
Tides and Currents Weather Stations Pressure Air Temp Water Temp Dewpoint Dewpoint Depression Visibility Wind Speed Wind Dir Waves Ship Positions

UAL Europe

Last reported at 2014-Oct-22 22:33 UTC. Time now 2014-Oct-22 23:10 UTC.
Position N 51°17' E 004°23'.

Length 145 m; draft 6 m.

Type: Ship (hazmat cat A). MMSI: 235010190.

Date/timePositionNaut miles runAvg speedWind from/ knotsBaromVisibWave heightAir tempDewpointWater temp
2014-Oct-22 22:33N 51°17' E 004°23'0 0.0
2014-Oct-22 21:33N 51°17' E 004°23'0 0.0
2014-Oct-22 20:33N 51°17' E 004°23'0 0.0
2014-Oct-22 19:33N 51°17' E 004°23'0 0.0
2014-Oct-22 18:33N 51°17' E 004°23'0 0.0
2014-Oct-22 17:33N 51°17' E 004°23'0 0.0
2014-Oct-22 16:33N 51°17' E 004°23'0 0.0
2014-Oct-22 15:33N 51°17' E 004°23'0 0.0
2014-Oct-22 14:33N 51°17' E 004°23'0 0.0
2014-Oct-22 13:32N 51°17' E 004°23'0 0.0
2014-Oct-22 12:32N 51°17' E 004°23'0 0.0
2014-Oct-22 11:32N 51°17' E 004°23'0 0.0
2014-Oct-22 10:32N 51°17' E 004°23'0 0.0
2014-Oct-22 09:32N 51°17' E 004°23'0 0.0
2014-Oct-22 08:32N 51°17' E 004°23'0 0.0
2014-Oct-22 07:34N 51°17' E 004°23'2 1.9
2014-Oct-22 06:34N 51°17' E 004°20'1 1.1
2014-Oct-22 05:34N 51°17' E 004°19'8 8.0
2014-Oct-22 04:33N 51°23' E 004°09'7 7.3
2014-Oct-22 03:34N 51°24' E 003°57'9 9.2
2014-Oct-22 02:34N 51°24' E 003°43'9 8.9
2014-Oct-22 01:33N 51°25' E 003°28'1313.1
2014-Oct-22 00:33N 51°24' E 003°07'1413.3
2014-Oct-21 23:32N 51°26' E 002°46'20 9.9
2014-Oct-21 21:32N 51°45' E 002°37'5210.4
2014-Oct-21 16:33N 52°33' E 003°08'1110.9
2014-Oct-21 15:31N 52°44' E 003°12'14610.4
2014-Oct-21 01:33N 54°53' E 005°07'1212.6
2014-Oct-21 00:33N 55°03' E 005°18'26810.6
2014-Oct-19 23:12N 58°49' E 009°45'812.7
2014-Oct-19 22:34N 58°57' E 009°49'8 8.5
2014-Oct-19 21:33N 58°59' E 010°04'3 3.2
2014-Oct-19 20:33N 59°03' E 010°03'0 0.0
2014-Oct-19 19:33N 59°03' E 010°03'0 0.0
2014-Oct-19 18:30N 59°03' E 010°03'0 0.0
2014-Oct-19 17:33N 59°03' E 010°03'0 0.0
2014-Oct-19 16:33N 59°03' E 010°03'0 0.0
2014-Oct-19 15:33N 59°03' E 010°03'0 0.0
2014-Oct-19 14:33N 59°03' E 010°03'0 0.0
2014-Oct-19 13:33N 59°03' E 010°03'0 0.0
2014-Oct-19 12:33N 59°03' E 010°03'0 0.0
2014-Oct-19 11:33N 59°03' E 010°03'0 0.0
2014-Oct-19 10:33N 59°03' E 010°03'0 0.0
2014-Oct-19 09:33N 59°03' E 010°03'0 0.0
2014-Oct-19 08:33N 59°03' E 010°03'0 0.0
2014-Oct-19 07:33N 59°03' E 010°03'0 0.0
2014-Oct-19 06:33N 59°03' E 010°03'0 0.0
2014-Oct-19 05:33N 59°03' E 010°03'0 0.0
2014-Oct-19 04:33N 59°03' E 010°03'0 0.0
2014-Oct-19 03:33N 59°03' E 010°03'0 0.0
2014-Oct-19 02:33N 59°03' E 010°03'0 0.0
2014-Oct-19 01:33N 59°03' E 010°03'0 0.0
2014-Oct-19 00:33N 59°03' E 010°03'0 0.0
2014-Oct-18 23:33N 59°03' E 010°03'0 0.0
2014-Oct-18 22:30N 59°03' E 010°03'0 0.0
2014-Oct-18 21:33N 59°03' E 010°03'0 0.0
2014-Oct-18 20:33N 59°03' E 010°03'0 0.0
2014-Oct-18 19:30N 59°03' E 010°03'0 0.0
2014-Oct-18 18:33N 59°03' E 010°03'0 0.0
2014-Oct-18 17:33N 59°03' E 010°03'0 0.0
2014-Oct-18 16:30N 59°03' E 010°03'0 0.0
2014-Oct-18 15:33N 59°03' E 010°03'0 0.0
2014-Oct-18 14:33N 59°03' E 010°03'0 0.0
2014-Oct-18 13:33N 59°03' E 010°03'0 0.0
2014-Oct-18 12:32N 59°03' E 010°03'0 0.0
2014-Oct-18 11:32N 59°03' E 010°03'0 0.0
2014-Oct-18 10:26N 59°03' E 010°03'0 0.0
2014-Oct-18 09:32N 59°03' E 010°03'0 0.0
2014-Oct-18 08:29N 59°03' E 010°03'0 0.0
2014-Oct-18 07:33N 59°03' E 010°03'1 0.9
2014-Oct-18 06:33N 59°02' E 010°03'69 9.8
2014-Oct-17 23:30N 58°01' E 008°57'1413.6
2014-Oct-17 22:28N 57°54' E 008°35'1413.6
2014-Oct-17 21:27N 57°47' E 008°12'30912.4
2014-Oct-16 20:33N 57°12' W 001°18'1110.9
2014-Oct-16 19:33N 57°11' W 001°38'15 0.5
2014-Oct-15 13:33N 57°09' W 002°05'0 0.0
2014-Oct-15 12:30N 57°09' W 002°05'0 0.0
2014-Oct-15 11:33N 57°09' W 002°05'162 4.9
2014-Oct-14 02:33N 54°50' E 000°25'9 8.6
2014-Oct-14 01:33N 54°41' E 000°27'9 8.8
2014-Oct-14 00:33N 54°33' E 000°29'9 9.0
2014-Oct-13 23:33N 54°24' E 000°30'9 9.2
2014-Oct-13 22:33N 54°15' E 000°32'9 9.1
2014-Oct-13 21:33N 54°06' E 000°34'9 8.7
2014-Oct-13 20:33N 53°57' E 000°39'9 8.7
2014-Oct-13 19:28N 53°49' E 000°44'3310.5
2014-Oct-13 16:20N 53°19' E 001°10'1114.2
2014-Oct-13 15:33N 53°10' E 001°19'1414.1
2014-Oct-13 14:34N 52°58' E 001°32'1313.2
2014-Oct-13 13:33N 52°49' E 001°49'1010.5
2014-Oct-13 12:33N 52°41' E 001°58'1010.5
2014-Oct-13 11:33N 52°30' E 001°59'1210.9
2014-Oct-13 10:28N 52°18' E 001°56'1111.8
2014-Oct-13 09:33N 52°08' E 001°53'1313.1
2014-Oct-13 08:34N 51°55' E 001°49'1414.4
2014-Oct-13 07:34N 51°41' E 001°49'1514.8
2014-Oct-13 06:34N 51°26' E 001°45'1515.1
2014-Oct-13 05:34N 51°11' E 001°40'1414.2
2014-Oct-13 04:34N 50°59' E 001°29'2814.2
2014-Oct-13 02:33N 50°35' E 001°05'1313.3
2014-Oct-13 01:33N 50°29' E 000°46'1313.5
2014-Oct-13 00:34N 50°25' E 000°26'  
Track history (hours):
 
Tides and Currents Weather Stations Pressure Air Temp Water Temp Dewpoint Dewpoint Depression Visibility Wind Speed Wind Dir Waves Ship Positions

UAL Europe

Last reported at 2014-Oct-22 22:33 UTC. Time now 2014-Oct-22 23:10 UTC.
Position N 51°17' E 004°23'.

Length 145 m; draft 6 m.

Type: Ship (hazmat cat A). MMSI: 235010190.

Date/timePositionNaut miles runAvg speedWind from/ knotsBaromVisibWave heightAir tempDewpointWater temp
2014-Oct-22 22:33N 51°17' E 004°23'0 0.0
2014-Oct-22 21:33N 51°17' E 004°23'0 0.0
2014-Oct-22 20:33N 51°17' E 004°23'0 0.0
2014-Oct-22 19:33N 51°17' E 004°23'0 0.0
2014-Oct-22 18:33N 51°17' E 004°23'0 0.0
2014-Oct-22 17:33N 51°17' E 004°23'0 0.0
2014-Oct-22 16:33N 51°17' E 004°23'0 0.0
2014-Oct-22 15:33N 51°17' E 004°23'0 0.0
2014-Oct-22 14:33N 51°17' E 004°23'0 0.0
2014-Oct-22 13:32N 51°17' E 004°23'0 0.0
2014-Oct-22 12:32N 51°17' E 004°23'0 0.0
2014-Oct-22 11:32N 51°17' E 004°23'0 0.0
2014-Oct-22 10:32N 51°17' E 004°23'0 0.0
2014-Oct-22 09:32N 51°17' E 004°23'0 0.0
2014-Oct-22 08:32N 51°17' E 004°23'0 0.0
2014-Oct-22 07:34N 51°17' E 004°23'2 1.9
2014-Oct-22 06:34N 51°17' E 004°20'1 1.1
2014-Oct-22 05:34N 51°17' E 004°19'8 8.0
2014-Oct-22 04:33N 51°23' E 004°09'7 7.3
2014-Oct-22 03:34N 51°24' E 003°57'9 9.2
2014-Oct-22 02:34N 51°24' E 003°43'9 8.9
2014-Oct-22 01:33N 51°25' E 003°28'1313.1
2014-Oct-22 00:33N 51°24' E 003°07'1413.3
2014-Oct-21 23:32N 51°26' E 002°46'20 9.9
2014-Oct-21 21:32N 51°45' E 002°37'5210.4
2014-Oct-21 16:33N 52°33' E 003°08'1110.9
2014-Oct-21 15:31N 52°44' E 003°12'14610.4
2014-Oct-21 01:33N 54°53' E 005°07'1212.6
2014-Oct-21 00:33N 55°03' E 005°18'26810.6
2014-Oct-19 23:12N 58°49' E 009°45'812.7
2014-Oct-19 22:34N 58°57' E 009°49'8 8.5
2014-Oct-19 21:33N 58°59' E 010°04'3 3.2
2014-Oct-19 20:33N 59°03' E 010°03'0 0.0
2014-Oct-19 19:33N 59°03' E 010°03'0 0.0
2014-Oct-19 18:30N 59°03' E 010°03'0 0.0
2014-Oct-19 17:33N 59°03' E 010°03'0 0.0
2014-Oct-19 16:33N 59°03' E 010°03'0 0.0
2014-Oct-19 15:33N 59°03' E 010°03'0 0.0
2014-Oct-19 14:33N 59°03' E 010°03'0 0.0
2014-Oct-19 13:33N 59°03' E 010°03'0 0.0
2014-Oct-19 12:33N 59°03' E 010°03'0 0.0
2014-Oct-19 11:33N 59°03' E 010°03'0 0.0
2014-Oct-19 10:33N 59°03' E 010°03'0 0.0
2014-Oct-19 09:33N 59°03' E 010°03'0 0.0
2014-Oct-19 08:33N 59°03' E 010°03'0 0.0
2014-Oct-19 07:33N 59°03' E 010°03'0 0.0
2014-Oct-19 06:33N 59°03' E 010°03'0 0.0
2014-Oct-19 05:33N 59°03' E 010°03'0 0.0
2014-Oct-19 04:33N 59°03' E 010°03'0 0.0
2014-Oct-19 03:33N 59°03' E 010°03'0 0.0
2014-Oct-19 02:33N 59°03' E 010°03'0 0.0
2014-Oct-19 01:33N 59°03' E 010°03'0 0.0
2014-Oct-19 00:33N 59°03' E 010°03'0 0.0
2014-Oct-18 23:33N 59°03' E 010°03'0 0.0
2014-Oct-18 22:30N 59°03' E 010°03'0 0.0
2014-Oct-18 21:33N 59°03' E 010°03'0 0.0
2014-Oct-18 20:33N 59°03' E 010°03'0 0.0
2014-Oct-18 19:30N 59°03' E 010°03'0 0.0
2014-Oct-18 18:33N 59°03' E 010°03'0 0.0
2014-Oct-18 17:33N 59°03' E 010°03'0 0.0
2014-Oct-18 16:30N 59°03' E 010°03'0 0.0
2014-Oct-18 15:33N 59°03' E 010°03'0 0.0
2014-Oct-18 14:33N 59°03' E 010°03'0 0.0
2014-Oct-18 13:33N 59°03' E 010°03'0 0.0
2014-Oct-18 12:32N 59°03' E 010°03'0 0.0
2014-Oct-18 11:32N 59°03' E 010°03'0 0.0
2014-Oct-18 10:26N 59°03' E 010°03'0 0.0
2014-Oct-18 09:32N 59°03' E 010°03'0 0.0
2014-Oct-18 08:29N 59°03' E 010°03'0 0.0
2014-Oct-18 07:33N 59°03' E 010°03'1 0.9
2014-Oct-18 06:33N 59°02' E 010°03'69 9.8
2014-Oct-17 23:30N 58°01' E 008°57'1413.6
2014-Oct-17 22:28N 57°54' E 008°35'1413.6
2014-Oct-17 21:27N 57°47' E 008°12'30912.4
2014-Oct-16 20:33N 57°12' W 001°18'1110.9
2014-Oct-16 19:33N 57°11' W 001°38'15 0.5
2014-Oct-15 13:33N 57°09' W 002°05'0 0.0
2014-Oct-15 12:30N 57°09' W 002°05'0 0.0
2014-Oct-15 11:33N 57°09' W 002°05'162 4.9
2014-Oct-14 02:33N 54°50' E 000°25'9 8.6
2014-Oct-14 01:33N 54°41' E 000°27'9 8.8
2014-Oct-14 00:33N 54°33' E 000°29'9 9.0
2014-Oct-13 23:33N 54°24' E 000°30'9 9.2
2014-Oct-13 22:33N 54°15' E 000°32'9 9.1
2014-Oct-13 21:33N 54°06' E 000°34'9 8.7
2014-Oct-13 20:33N 53°57' E 000°39'9 8.7
2014-Oct-13 19:28N 53°49' E 000°44'3310.5
2014-Oct-13 16:20N 53°19' E 001°10'1114.2
2014-Oct-13 15:33N 53°10' E 001°19'1414.1
2014-Oct-13 14:34N 52°58' E 001°32'1313.2
2014-Oct-13 13:33N 52°49' E 001°49'1010.5
2014-Oct-13 12:33N 52°41' E 001°58'1010.5
2014-Oct-13 11:33N 52°30' E 001°59'1210.9
2014-Oct-13 10:28N 52°18' E 001°56'1111.8
2014-Oct-13 09:33N 52°08' E 001°53'1313.1
2014-Oct-13 08:34N 51°55' E 001°49'1414.4
2014-Oct-13 07:34N 51°41' E 001°49'1514.8
2014-Oct-13 06:34N 51°26' E 001°45'1515.1
2014-Oct-13 05:34N 51°11' E 001°40'1414.2
2014-Oct-13 04:34N 50°59' E 001°29'2814.2
2014-Oct-13 02:33N 50°35' E 001°05'1313.3
2014-Oct-13 01:33N 50°29' E 000°46'1313.5
2014-Oct-13 00:34N 50°25' E 000°26'  

Dump ship's entire track history